GAOFEN 1-03

Last updated on Tue Nov 21 2023 00:02:24 GMT+0000 (Coordinated Universal Time)

1 43260U 18031B 23324.55389909 .00000950 00000+0 14336-3 0 9993 2 43260 97.8475 33.2169 0004396 188.4048 171.7089 14.76536413304039

Satellite not in orbit

GAOFEN 1-03